TimeMDT,TemperatureF,Dew PointF,Humidity,Sea Level PressureIn,VisibilityMPH,Wind Direction,Wind SpeedMPH,Gust SpeedMPH,PrecipitationIn,Events,Conditions,WindDirDegrees,DateUTC
12:15 AM,52.9,16.7,24,30.07,10.0,West,3.5,-,N/A,,Clear,280,2013-05-28 06:15:00
12:35 AM,51.6,16.7,25,30.07,10.0,Calm,Calm,-,N/A,,Clear,0,2013-05-28 06:35:00
12:55 AM,52.5,16.7,24,30.07,10.0,WNW,3.5,-,N/A,,Clear,290,2013-05-28 06:55:00
1:15 AM,52.7,16.7,24,30.07,10.0,Calm,Calm,-,N/A,,Clear,0,2013-05-28 07:15:00
1:35 AM,51.3,17.4,26,30.07,10.0,West,4.6,-,N/A,,Clear,280,2013-05-28 07:35:00
1:55 AM,48.0,18.5,31,30.07,10.0,West,3.5,-,N/A,,Clear,260,2013-05-28 07:55:00
2:15 AM,47.3,17.8,31,30.07,10.0,WSW,5.8,-,N/A,,Clear,250,2013-05-28 08:15:00
2:35 AM,46.2,18.1,33,30.06,10.0,Calm,Calm,-,N/A,,Clear,0,2013-05-28 08:35:00
2:55 AM,46.2,18.3,33,30.06,10.0,Calm,Calm,-,N/A,,Clear,0,2013-05-28 08:55:00
3:15 AM,48.2,17.6,30,30.05,10.0,NNW,4.6,-,N/A,,Clear,330,2013-05-28 09:15:00
3:35 AM,46.6,17.6,32,30.05,10.0,Calm,Calm,-,N/A,,Clear,0,2013-05-28 09:35:00
3:55 AM,46.4,18.1,32,30.05,10.0,Calm,Calm,-,N/A,,Clear,0,2013-05-28 09:55:00
4:15 AM,45.5,18.1,34,30.05,10.0,NNW,3.5,-,N/A,,Clear,330,2013-05-28 10:15:00
4:35 AM,43.7,19.0,37,30.05,10.0,NW,3.5,-,N/A,,Clear,320,2013-05-28 10:35:00
4:55 AM,45.5,18.3,34,30.05,10.0,NNW,5.8,-,N/A,,Clear,330,2013-05-28 10:55:00
5:15 AM,45.1,17.6,33,30.05,10.0,Calm,Calm,-,N/A,,Clear,0,2013-05-28 11:15:00
5:35 AM,42.1,18.5,39,30.05,10.0,Calm,Calm,-,N/A,,Clear,0,2013-05-28 11:35:00
5:55 AM,44.2,19.2,37,30.05,10.0,NW,3.5,-,N/A,,Clear,310,2013-05-28 11:55:00
6:15 AM,43.9,19.8,38,30.06,10.0,NNW,8.1,-,N/A,,Clear,330,2013-05-28 12:15:00
6:35 AM,43.9,21.0,40,30.06,10.0,NW,4.6,-,N/A,,Clear,320,2013-05-28 12:35:00
6:55 AM,44.6,21.9,41,30.06,10.0,Calm,Calm,-,N/A,,Clear,0,2013-05-28 12:55:00
7:15 AM,47.3,22.3,37,30.06,10.0,NNW,5.8,-,N/A,,Clear,340,2013-05-28 13:15:00
7:35 AM,46.8,24.3,41,30.06,10.0,Calm,Calm,-,N/A,,Clear,0,2013-05-28 13:35:00
7:55 AM,48.7,20.7,33,30.05,10.0,NNW,3.5,-,N/A,,Clear,330,2013-05-28 13:55:00
8:15 AM,52.0,22.8,32,30.05,10.0,Calm,Calm,-,N/A,,Clear,0,2013-05-28 14:15:00
8:35 AM,52.5,21.0,29,30.05,10.0,Calm,Calm,-,N/A,,Clear,0,2013-05-28 14:35:00
8:55 AM,55.2,21.4,27,30.04,10.0,Calm,Calm,-,N/A,,Clear,0,2013-05-28 14:55:00
9:15 AM,57.2,21.0,25,30.03,10.0,NNE,4.6,-,N/A,,Clear,20,2013-05-28 15:15:00
9:35 AM,59.0,22.5,24,30.03,10.0,Calm,Calm,-,N/A,,Clear,0,2013-05-28 15:35:00
9:55 AM,61.3,19.2,20,30.02,10.0,Calm,Calm,-,N/A,,Clear,0,2013-05-28 15:55:00
10:15 AM,64.9,18.9,17,30.00,10.0,North,6.9,-,N/A,,Clear,360,2013-05-28 16:15:00
10:35 AM,67.1,14.4,13,29.99,10.0,South,9.2,-,N/A,,Clear,170,2013-05-28 16:35:00
10:55 AM,69.1,12.2,11,29.98,10.0,SSE,13.8,20.7,N/A,,Clear,160,2013-05-28 16:55:00
11:15 AM,69.8,11.7,11,29.98,10.0,South,15.0,23.0,N/A,,Clear,170,2013-05-28 17:15:00
11:35 AM,70.0,11.3,10,29.97,10.0,SE,12.7,19.6,N/A,,Clear,140,2013-05-28 17:35:00
11:55 AM,70.3,12.0,11,29.97,10.0,SSE,16.1,21.9,N/A,,Clear,150,2013-05-28 17:55:00
12:15 PM,72.1,11.8,10,29.95,10.0,SE,18.4,26.5,N/A,,Clear,140,2013-05-28 18:15:00
12:35 PM,72.5,10.0,9,29.94,10.0,SSE,15.0,23.0,N/A,,Clear,150,2013-05-28 18:35:00
12:55 PM,73.4,10.9,9,29.94,10.0,South,15.0,24.2,N/A,,Clear,190,2013-05-28 18:55:00
1:15 PM,73.6,10.9,9,29.93,10.0,SSE,12.7,24.2,N/A,,Clear,150,2013-05-28 19:15:00
1:35 PM,74.7,11.8,9,29.92,10.0,SSE,12.7,21.9,N/A,,Clear,150,2013-05-28 19:35:00
1:55 PM,73.6,12.7,10,29.90,10.0,SE,12.7,24.2,N/A,,Scattered Clouds,140,2013-05-28 19:55:00
2:15 PM,73.6,12.2,10,29.90,10.0,SE,6.9,21.9,N/A,,Scattered Clouds,140,2013-05-28 20:15:00
2:35 PM,75.9,13.1,9,29.89,10.0,SSW,10.4,19.6,N/A,,Clear,210,2013-05-28 20:35:00
2:55 PM,74.8,12.7,9,29.88,10.0,South,12.7,31.1,N/A,,Clear,190,2013-05-28 20:55:00
3:15 PM,75.2,11.3,9,29.87,10.0,SSE,17.3,25.3,N/A,,Clear,160,2013-05-28 21:15:00
3:35 PM,74.8,12.0,9,29.86,10.0,SE,18.4,27.6,N/A,,Clear,140,2013-05-28 21:35:00
3:55 PM,74.3,11.7,9,29.85,10.0,SW,9.2,17.3,N/A,,Clear,220,2013-05-28 21:55:00
4:15 PM,73.8,11.7,9,29.85,10.0,South,11.5,19.6,N/A,,Clear,180,2013-05-28 22:15:00
4:35 PM,74.8,11.7,9,29.84,10.0,SSW,8.1,-,N/A,,Clear,210,2013-05-28 22:35:00
4:55 PM,73.4,7.7,8,29.83,10.0,SSW,15.0,21.9,N/A,,Clear,200,2013-05-28 22:55:00
5:15 PM,73.4,9.0,8,29.83,10.0,SW,15.0,18.4,N/A,,Clear,230,2013-05-28 23:15:00
5:35 PM,72.5,7.3,8,29.83,10.0,SW,11.5,-,N/A,,Clear,220,2013-05-28 23:35:00
5:55 PM,71.4,8.1,9,29.83,10.0,SW,12.7,16.1,N/A,,Clear,230,2013-05-28 23:55:00
6:15 PM,71.1,8.1,9,29.83,10.0,SW,11.5,19.6,N/A,,Clear,220,2013-05-29 00:15:00
6:35 PM,71.1,7.7,9,29.83,10.0,SSW,15.0,23.0,N/A,,Clear,210,2013-05-29 00:35:00
6:55 PM,70.7,9.9,10,29.83,10.0,SW,11.5,-,N/A,,Clear,220,2013-05-29 00:55:00
7:15 PM,70.0,10.0,10,29.83,10.0,SSW,13.8,23.0,N/A,,Clear,200,2013-05-29 01:15:00
7:35 PM,69.4,9.1,10,29.82,10.0,South,11.5,-,N/A,,Clear,190,2013-05-29 01:35:00
7:55 PM,69.1,7.2,9,29.82,10.0,SSW,13.8,20.7,N/A,,Clear,200,2013-05-29 01:55:00
8:15 PM,68.5,5.4,8,29.82,10.0,South,15.0,24.2,N/A,,Clear,190,2013-05-29 02:15:00
8:35 PM,67.3,5.9,9,29.83,10.0,SW,10.4,-,N/A,,Clear,230,2013-05-29 02:35:00
8:55 PM,65.3,16.2,15,29.85,10.0,West,4.6,-,N/A,,Clear,260,2013-05-29 02:55:00
9:15 PM,63.7,18.0,17,29.86,10.0,WSW,8.1,-,N/A,,Clear,250,2013-05-29 03:15:00
9:35 PM,62.2,19.8,19,29.87,10.0,West,8.1,-,N/A,,Clear,260,2013-05-29 03:35:00
9:55 PM,61.2,19.6,20,29.87,10.0,WSW,8.1,-,N/A,,Clear,240,2013-05-29 03:55:00
10:15 PM,60.8,20.3,21,29.87,10.0,WSW,3.5,-,N/A,,Clear,240,2013-05-29 04:15:00
10:35 PM,58.5,20.7,23,29.88,10.0,West,3.5,-,N/A,,Clear,270,2013-05-29 04:35:00
10:55 PM,58.6,20.7,23,29.87,10.0,West,5.8,-,N/A,,Clear,270,2013-05-29 04:55:00
11:15 PM,57.6,20.8,24,29.87,10.0,WNW,4.6,-,N/A,,Clear,290,2013-05-29 05:15:00
11:35 PM,55.8,21.7,27,29.86,10.0,WSW,3.5,-,N/A,,Clear,240,2013-05-29 05:35:00
11:55 PM,52.5,22.3,31,29.86,10.0,West,5.8,-,N/A,,Clear,260,2013-05-29 05:55:00